Вернуться в каталог

KUIPER-00320

АктивенСвязьLEO
NORAD 68601·PAYLOAD·🇺🇸 United States

Запущен Apr 4, 2026 с Cape Canaveral Space Force Station

Loading…

Ближайшие Пролёты (ближайшие 24 часа)

TLE

СвежийSource: CelesTrak SupGP

Эпоха: Sep 14, 2026, 23:28 UTC

1 68601C 26072AE  26257.97787037  .00003057  00000+0  40022-3 0  2570
2 68601  51.9008 143.6165 0000859  98.1707 207.6142 14.79928682    15

Отслеживайте KUIPER-00320 в реальном времени с AllMySat

Download on the App Store